SCP
0 0 0 0 0 0 0 0 0 0 0 0 0 0 0 0 0 0 0 0 0 0 0 0 0 0 0 0 0 0 0 0 0 0 0 0 0 0 0 0 0 0 0
0 0 0 0 0 0 0 0 0 0 0 0 0 0 0 0 0 0 0 0 0 0 0 0 0 0 0 0 0 0 0 0 0 0 0 0 0 0 0 0 0 0 0
0 0 0 0 0 0 0 0 0 0 0 0 0 0 0 0 0 0 0 0 0 0 0 0 0 0 0 0 0 0 0 0 0 0 0 0 0 0 0 0 0 0 0
0 0 0 0 0 0 0 0 0 0 0 0 0 0 0 0 0 0 0 0 0 0 0 0 0 0 0 0 0 0 0 0 0 0 0 0 0 0 0 0 0 0 0
0 0 0 0 0 0 0 0 0 0 0 0 0 0 0 0 0 0 0 0 0 0 0 0 0 0 0 0 0 0 0 0 0 0 0 0 0 0 0 0 0 0 0
0 0 0 0 0 0 0 0 0 0 0 0 0 0 0 0 0 0 0 0 0 0 0 0 0 0 0 0 0 0 0 0 0 0 0 0 0 0 0 0 0 0 0
0 0 0 0 0 0 0 0 0 0 0 0 0 0 0 0 0 0 0 0 0 0 0 0 0 0 0 0 0 0 0 0 0 0 0 0 0 0 0 0 0 0 0
0 0 0 0 0 0 0 0 0 0 0 0 0 0 0 0 0 0 0 0 0 0 0 0 0 0 0 0 0 0 0 0 0 0 0 0 0 0 0 0 0 0 0
0 0 0 0 0 0 0 0 0 0 0 0 0 0 0 0 0 0 0 0 0 0 0 0 0 0 0 0 0 0 0 0 0 0 0 0 0 0 0 0 0 0 0
0 0 0 0 0 0 0 0 0 0 0 0 0 0 0 0 0 0 0 0 0 0 0 0 0 0 0 0 0 0 0 0 0 0 0 0 0 0 0 0 0 0 0
0 0 0 0 0 0 0 0 0 0 0 0 0 0 0 0 0 0 0 0 0 0 0 0 0 0 0 0 0 0 0 0 0 0 0 0 0 0 0 0 0 0 0
0 0 0 0 0 0 0 0 0 0 0 0 0 0 0 0 0 0 0 0 0 0 0 0 0 0 0 0 0 0 0 0 0 0 0 0 0 0 0 0 0 0 0
0 0 0 0 0 0 0 0 0 0 0 0 0 0 0 0 0 0 0 0 0 0 0 0 0 0 0 0 0 0 0 0 0 0 0 0 0 0 0 0 0 0 0
0 0 0 0 0 0 0 0 0 0 0 0 0 0 0 0 0 0 0 0 0 0 0 0 0 0 0 0 0 0 0 0 0 0 0 0 0 0 0 0 0 0 0
0 0 0 0 0 0 0 0 0 0 0 0 0 0 0 0 0 0 0 0 0 0 0 0 0 0 0 0 0 0 0 0 0 0 0 0 0 0 0 0 0 0 0
0 0 0 0 0 0 0 0 0 0 0 0 0 0 0 0 0 0 0 0 0 0 0 0 0 0 0 0 0 0 0 0 0 0 0 0 0 0 0 0 0 0 0
0 0 0 0 0 0 0 0 0 0 0 0 0 0 0 0 0 0 0 0 0 0 0 0 0 0 0 0 0 0 0 0 0 0 0 0 0 0 0 0 0 0 0
0 0 0 0 0 0 0 0 0 0 0 0 0 0 -0 0 0 0 0 0 0 0 0 0 0 0 0 0 0 0 0 0 0 0 0 0 0 0 0 0 0 0 0
0 0 0 0 0 0 0 0 0 0 0 0 0 0 0 0 0 0 0 0 0 0 0 0 0 0 0 0 0 0 0 0 0 0 0 0 0 0 0 0 0 0 0
0 0 0 0 0 0 0 0 0 0 0 0 0 0 0 0 0 0 0 0 0 0 0 0 0 0 0 0 0 0 0 0 0 0 0 0 0 0 0 0 0 0 0
0 0 0 0 0 0 0 0 0 0 0 0 0 0 0 0 0 0 0 0 0 0 0 0 0 0 0 0 0 0 0 0 0 0 0 0 0 0 0 0 0 0 0
0 0 0 0 0 0 0 0 0 0 0 0 0 0 0 0 0 0 0 0 0 0 0 0 0 0 0 0 0 0 0 0 0 0 0 0 0 0 0 0 0 0 0
0 0 0 0 0 0 0 0 0 0 0 0 0 0 0 0 0 0 0 0 0 0 0 0 0 0 0 0 0 0 0 0 0 0 0 0 0 0 0 0 0 0 0
0 0 0 0 0 0 0 0 0 0 0 0 0 0 0 0 0 0 0 0 0 0 0 0 0 0 0 0 0 0 0 0 0 0 0 0 0 0 0 0 0 0 0
0 0 0 0 0 0 0 0 0 0 0 0 0 0 0 0 0 0 0 0 0 0 0 0 0 0 0 0 0 0 0 0 0 0 0 0 0 0 0 0 0 0 0
0 0 0 0 0 0 0 0 0 0 0 0 0 0 0 0 0 0 0 0 0 0 0 0 0 0 0 0 0 0 0 0 0 0 0 0 0 0 0 0 0 0 0
Wind_Speed
10 10 10 9 9 9 9 8 7 6 6 7 7 7 7 7 5 5 5 4 5 4 4 4 5 4 3 4 4 4 4 5 10 10 7 8 10 12 12 11 11 11 11
9 9 10 9 10 10 9 8 8 8 7 7 7 7 6 6 5 5 5 5 5 5 5 5 6 5 6 5 4 5 6 6 8 13 11 9 11 12 13 13 12 11 10
9 10 10 9 10 10 9 8 8 8 7 6 6 6 5 4 4 4 4 4 4 4 5 6 7 7 7 6 7 7 7 8 8 10 12 10 9 9 11 11 12 10 11
10 11 10 9 9 9 8 7 7 6 6 5 5 4 4 3 3 3 3 4 5 6 6 6 7 7 8 9 7 8 8 9 9 10 10 9 9 9 8 8 9 8 9
10 11 9 8 8 8 7 7 6 5 5 4 4 4 3 2 2 3 3 5 6 7 8 7 8 11 11 9 8 9 9 8 8 8 9 8 9 8 7 6 9 9 10
10 9 8 8 8 7 6 6 6 6 5 4 4 3 3 3 5 6 6 4 6 7 8 9 9 9 11 14 15 16 15 12 10 8 8 9 10 9 8 7 8 8 6
8 8 7 7 7 6 5 6 5 4 4 4 4 3 3 4 6 7 10 6 6 7 8 8 8 8 11 9 12 16 15 17 16 11 10 10 11 9 9 9 8 8 8
7 7 6 6 6 5 5 5 4 3 3 3 3 3 3 4 7 8 11 7 7 8 8 8 9 10 9 10 11 11 11 11 12 9 9 10 10 9 8 8 8 8 7
6 5 5 5 5 5 5 4 3 3 3 3 2 3 4 5 8 9 10 6 7 9 9 9 9 9 12 14 11 11 11 10 10 12 13 12 13 13 10 6 5 5 6
4 4 4 5 5 4 4 3 3 3 3 3 4 4 4 5 8 10 10 5 7 8 9 9 10 10 14 14 10 9 10 10 11 11 10 10 9 8 8 6 5 5 5
4 5 4 4 4 3 3 3 3 3 3 4 4 4 5 6 8 11 12 6 6 8 7 7 8 13 15 15 11 8 10 12 10 9 8 7 6 5 5 5 4 4 5
4 4 4 3 2 3 3 3 3 3 3 4 4 5 5 6 7 10 13 11 10 7 7 7 8 14 15 14 10 11 14 11 6 6 6 6 5 5 5 6 6 5 5
4 3 3 3 3 2 2 2 2 2 2 3 4 5 6 6 7 11 12 14 15 8 7 12 14 14 12 9 11 13 10 6 6 6 6 5 5 6 6 5 5 5 4
4 2 2 2 1 1 1 0 0 1 1 2 3 5 6 6 6 7 8 8 10 9 8 10 12 11 9 9 9 8 6 6 6 5 6 6 5 5 5 5 4 5 4
3 2 1 1 0 1 1 1 1 2 2 2 2 3 5 6 8 12 8 7 7 7 8 5 5 6 7 7 7 7 6 6 6 6 6 6 6 6 5 5 4 4 5
2 1 1 1 1 1 2 2 3 3 4 4 4 5 5 6 11 12 12 12 12 12 6 5 6 6 7 7 8 7 6 7 6 6 6 6 6 6 6 5 5 5 6
2 2 1 1 1 1 1 1 3 4 5 5 6 8 7 10 10 11 12 12 9 9 5 5 6 7 7 7 7 7 7 7 6 5 5 6 6 6 6 6 6 6 6
2 2 2 1 1 1 1 1 1 1 3 4 5 7 10 11 11 11 11 9 6 6 5 6 6 7 7 7 7 7 7 7 6 6 5 5 5 5 6 6 6 8 7
2 2 2 1 1 1 1 0 0 1 1 2 4 5 8 9 9 9 8 5 5 5 6 6 6 6 7 7 7 7 7 7 7 6 6 6 5 5 6 6 6 9 8
2 4 3 2 1 0 0 0 1 1 1 2 3 4 5 6 5 6 5 5 5 5 6 6 6 6 7 7 7 7 7 7 8 7 6 6 5 5 6 7 7 7 7
1 1 2 1 1 1 1 0 0 0 1 2 3 4 6 4 5 6 5 5 5 5 6 6 6 6 7 7 7 8 9 7 7 7 6 6 5 5 5 6 7 7 7
0 0 1 1 1 1 1 1 1 1 1 2 2 4 7 4 5 5 5 6 5 5 5 5 5 5 6 6 7 7 8 7 7 7 7 6 5 4 5 6 7 7 8
2 2 2 2 2 2 2 2 2 1 2 2 3 3 4 4 5 5 6 6 6 6 6 6 6 6 6 6 6 6 6 7 7 7 6 5 4 4 4 6 8 8 9
3 3 3 3 2 2 2 2 2 3 3 3 3 4 4 5 5 6 6 6 6 6 6 6 6 8 11 8 6 6 6 7 7 5 4 3 3 4 4 5 6 7 7
3 3 3 3 3 3 3 3 3 4 4 4 4 4 4 5 6 6 7 7 8 7 8 8 7 8 11 12 10 9 10 10 7 4 2 3 5 5 5 5 4 4 4
4 4 3 3 3 3 3 3 4 4 4 4 4 4 5 5 6 6 7 7 8 8 8 7 10 11 12 10 12 12 10 9 9 7 4 4 6 5 5 4 5 4 4
Wind_Direction
72 77 80 81 84 87 88 87 86 83 84 86 89 88 85 83 81 80 73 57 47 24 7 350 331 319 309 306 299 288 276 271 286 295 283 281 278 280 285 285 282 279 276
75 79 79 80 81 82 82 81 82 81 81 90 96 97 94 88 80 75 61 46 30 7 348 336 326 323 310 300 292 286 282 273 278 294 298 292 281 280 281 280 282 278 275
82 81 78 77 80 80 81 80 81 85 86 89 94 95 92 86 75 63 52 32 9 345 331 322 315 312 305 300 296 288 284 284 277 285 293 291 285 282 283 280 279 277 278
83 83 80 78 80 81 80 78 79 84 86 83 82 83 78 70 59 40 23 5 347 333 323 313 307 299 291 293 294 290 290 289 285 282 287 290 287 284 277 283 287 281 280
84 83 82 82 81 80 77 75 73 72 75 74 73 63 49 43 32 18 357 347 337 329 324 317 308 304 306 308 308 305 301 295 293 289 289 292 294 296 290 286 288 291 285
84 84 84 83 81 78 74 71 67 60 54 54 51 45 30 21 10 8 359 341 330 323 319 317 312 307 312 315 314 313 310 306 305 297 296 297 299 298 295 291 289 291 289
82 85 85 87 86 80 79 70 62 53 47 43 34 32 19 358 7 1 354 343 323 315 311 311 311 311 315 310 313 314 309 304 301 300 298 297 297 298 295 292 285 285 283
84 88 90 90 86 78 71 63 51 42 38 31 31 29 17 359 1 357 348 341 324 318 313 307 305 310 315 320 317 311 307 305 302 299 290 292 293 293 291 289 289 287 279
88 91 91 90 85 75 63 49 38 40 36 31 29 21 4 341 344 346 350 335 328 324 319 317 316 316 315 320 320 312 309 309 309 303 295 291 290 290 292 294 299 303 305
88 89 87 89 88 78 63 48 37 46 39 28 19 3 348 333 334 344 350 338 331 327 322 322 321 318 317 320 318 309 309 314 314 312 309 307 304 300 299 293 298 301 305
95 91 88 86 86 80 66 53 52 50 39 23 8 349 342 337 337 343 348 345 331 323 321 322 319 319 319 318 317 306 304 307 306 306 309 311 314 315 312 307 296 292 296
95 94 88 81 79 86 82 67 54 49 38 17 1 352 346 343 342 341 341 341 337 323 317 315 313 317 319 320 320 315 315 316 311 315 321 327 330 330 326 319 310 300 286
108 106 99 85 68 77 93 83 53 37 27 5 358 350 341 339 338 340 340 338 338 334 316 316 320 322 326 327 324 325 327 327 328 334 339 338 334 331 329 326 326 321 307
133 130 119 100 68 45 55 102 92 341 346 347 346 341 335 334 340 343 338 333 333 334 326 321 322 326 332 329 330 335 337 335 340 343 344 339 338 341 346 342 338 341 339
135 141 127 105 287 314 311 267 258 249 241 281 307 313 326 331 329 328 329 330 329 326 323 325 338 342 345 345 342 342 344 351 356 355 355 354 351 353 353 349 351 350 358
140 174 207 243 288 308 322 325 308 292 304 304 302 303 304 306 320 332 338 338 338 339 345 347 345 345 344 343 342 343 347 354 355 355 1 4 2 2 3 1 4 9 13
182 209 221 238 269 299 315 330 331 340 355 3 350 345 343 338 341 344 344 340 344 353 1 351 347 344 344 343 344 347 348 347 350 353 358 2 7 10 11 12 13 16 18
212 224 211 224 239 255 267 282 303 338 346 341 338 338 345 346 345 349 349 350 354 360 355 349 346 345 345 345 346 347 345 346 351 352 353 358 5 15 19 22 24 23 22
230 232 221 213 213 226 249 295 8 6 354 335 335 337 343 343 342 349 355 359 347 347 347 346 344 344 343 344 344 345 345 346 350 351 355 359 6 18 27 30 33 27 28
248 238 209 194 186 162 93 57 44 25 355 339 339 337 340 347 353 350 353 349 349 346 344 342 342 343 343 342 342 344 346 348 351 354 355 358 6 23 35 37 37 38 36
249 243 187 149 148 148 126 86 55 10 330 324 325 330 347 348 349 347 349 351 351 347 345 342 341 343 343 341 341 343 344 345 348 349 353 359 8 28 41 44 46 49 48
172 132 116 124 126 124 110 86 63 16 341 334 335 343 354 2 355 352 352 352 351 349 346 343 341 343 341 337 335 335 335 338 343 346 348 356 10 34 50 55 55 56 56
90 92 83 73 84 96 84 65 55 38 21 8 1 1 0 360 356 354 353 351 351 352 351 350 347 345 343 332 325 322 321 322 321 321 329 348 15 43 60 64 67 68 65
75 81 81 77 76 78 76 64 54 52 50 38 27 18 8 1 358 356 354 350 350 352 353 352 349 345 344 339 328 323 317 312 309 304 316 353 42 69 75 76 76 78 76
69 73 74 73 77 80 80 72 64 58 52 42 30 19 9 4 1 357 353 351 351 353 355 355 351 347 344 340 339 335 328 327 335 339 353 45 69 76 82 85 84 82 76
65 68 67 69 73 78 83 81 72 65 53 40 28 17 9 3 358 355 354 354 352 352 354 353 352 351 348 344 340 337 337 346 356 6 29 60 67 71 79 81 83 76 70